Location: Cudham
(51.3000°N, 0.0667°E)
Time: 01:23:48
(UTC+00:00)

Cosmos 1805 Rocket - Pass Details

Date: 19 May 2025
Orbit: 600 x 623 km, 82.5° (Epoch: 17 June)

Event Time Altitude Azimuth Distance (km) Brightness Sun altitude
Rises 23:01:16 0° 351° (N) 2,919 8.8 -17.7°
Reaches altitude 10° 23:03:33 10° 355° (N) 2,007 7.4 -17.8°
Maximum altitude 23:07:58 62° 77° (ENE) 705 3.8 -17.9°
Enters shadow 23:09:38 35° 143° (SE) 1,005 4.1 -18.0°
